Regional Weather Roundup
Issued by NWS Cleveland, OH

Home | Current Version | Previous Version | Graphics & Text | Print | Product List | Glossary On
Versions: 1 2 3 4 5 6 7 8 9 10 11 12 13 14 15 16 17 18 19 20 21 22 23 24 25 26 27 28 29 30 31 32 33 34 35 36 37 38 39 40 41 42 43 44 45 46 47 48 49 50
000
ASUS41 KCLE 160510
RWRCLE
OHIO REGIONAL WEATHER ROUNDUP
NATIONAL WEATHER SERVICE CLEVELAND, OH
100 AM EDT WED APR 16 2014

NOTE: "FAIR" INDICATES FEW OR NO CLOUDS BELOW 12,000 FEET WITH NO
SIGNIFICANT WEATHER AND/OR OBSTRUCTIONS TO VISIBILITY.

OHZ001>008-015>018-024>027-034-035-043-044-160600-
   NORTHWEST OHIO

CITY           SKY/WX    TMP DP  RH WIND       PRES   REMARKS
DEFIANCE       CLEAR     24  14  65 CALM      30.26S
FINDLAY        CLEAR     27  14  58 NW3       30.25R
TOLEDO EXPRESS CLEAR     25  13  60 CALM      30.26R
TOLEDO EXEC    CLEAR     26  14  60 W6        30.27R WCI  19
LIMA           CLEAR     28  14  55 N3        30.24F
$$

OHZ009>014-019>023-028>033-038-089-160600-
   NORTHEAST OHIO

CITY           SKY/WX    TMP DP  RH WIND       PRES   REMARKS
CLE-HOPKINS    MOCLDY    31  17  56 N8        30.26R WCI  23
CLE-LAKEFRONT  CLEAR     31  19  61 N12       30.23R WCI  22
CUY CO. ARPT   NOT AVBL
LORAIN-ELYRIA  CLOUDY    32  17  54 N10       30.24R WCI  24
ASHTABULA      CLEAR     26  16  65 N7        30.23R WCI  18
AKRON-CANTON   PTCLDY    26  20  77 W6        30.20R WCI  19
WOOSTER        LGT SNOW  28  22  78 NW8       30.22R WCI  20
MANSFIELD      CLEAR     26  16  65 NW6       30.21S WCI  19
YOUNGSTOWN     LGT SNOW  26  22  84 N8        30.19R FOG     WCI  18
$$

OHZ042-051>053-060>062-070>072-077>081-160600-
  SOUTHWEST OHIO

CITY           SKY/WX    TMP DP  RH WIND       PRES   REMARKS
CINC-COVINGTON CLEAR     32  16  51 NE6       30.25S WCI  26
CINC-LUNKEN    CLEAR     29  22  75 CALM      30.29R
HAMILTON       CLEAR     30  19  63 N5        30.28R WCI  25
DAYTON         CLEAR     27  16  63 NE6       30.25S WCI  20
WRIGHT-PAT AFB CLEAR     29  16  58 NE5       30.26R WCI  24
DAYTON GENERAL CLEAR     28  16  60 NE6       30.24S WCI  22
WILMINGTON     CLEAR     28  16  60 N6        30.25R WCI  22
$$

OHZ036-037-039>041-045>050-054>059-063>069-073>076-082>088-160600-
  CENTRAL AND SOUTHEAST OHIO

CITY           SKY/WX    TMP DP  RH WIND       PRES   REMARKS
COLUMBUS       CLEAR     31  15  52 NW8       30.25R WCI  23
OSU AIRPORT    CLEAR     27  15  61 NW7       30.25S WCI  19
BOLTON FIELD   CLEAR     27  18  68 MISG      30.25S
RICKENBACK AFB CLEAR     31  14  48 NW7       30.25S WCI  24
NEWARK         CLEAR     24  17  74 NW3       30.23S
MARION         CLEAR     27  14  58 NW8       30.24S WCI  19
LANCASTER      CLEAR     28  17  63 NW3       30.24S
ZANESVILLE     CLEAR     27  20  75 CALM      30.23S
NEW PHILLY     CLEAR     27  19  72 N3        30.23R
$$



USA.gov is the U.S. government's official web portal to all federal, state and local government web resources and services.